Theta_e
348 348 350 350 350 350 349 349 349 350 352 353 353 353 354 353 355 355 358 357 356 357 354 355 354 354 353 351 351 349 351 351 349 352 351 350 350 350 350 350 350 350 350
348 348 349 350 351 351 350 351 351 352 354 352 352 352 352 353 354 356 357 357 358 356 356 355 354 354 353 352 348 348 349 350 349 349 350 354 348 345 345 344 344 345 347
348 347 348 349 350 350 351 351 352 353 354 353 354 355 355 356 355 355 355 356 357 356 357 356 355 356 356 351 348 348 349 348 349 348 350 349 349 345 345 344 343 342 341
348 347 346 347 347 349 350 351 353 354 354 355 353 355 352 350 350 351 351 355 358 357 357 357 356 357 352 352 347 344 347 350 347 349 347 349 346 352 350 345 344 342 339
349 348 346 345 346 346 348 349 352 355 354 355 353 356 355 351 351 352 356 359 358 359 359 359 359 357 352 351 349 348 349 346 344 346 347 349 348 348 346 349 344 344 341
349 349 347 346 346 346 347 349 351 355 356 356 356 356 355 353 352 353 352 353 356 358 357 360 359 357 353 351 348 348 348 348 347 344 345 345 346 346 345 349 345 344 343
349 349 349 347 347 347 348 349 352 356 356 356 356 357 357 356 354 355 352 350 354 355 357 360 359 357 356 352 349 351 348 346 345 347 343 341 343 345 345 344 346 345 344
348 349 349 348 348 348 349 350 352 356 355 356 356 357 357 355 353 353 352 350 352 352 356 360 359 358 356 354 351 349 346 343 340 342 344 340 339 344 345 344 346 346 343
348 349 348 348 348 349 350 351 352 356 356 355 357 357 357 356 352 353 355 352 354 354 358 359 360 359 357 355 353 348 347 343 340 337 340 339 337 341 342 343 344 342 344
349 348 349 348 348 349 349 351 352 355 355 354 355 356 356 357 356 355 356 355 353 356 357 360 360 359 358 357 354 351 349 345 342 338 339 340 335 337 338 341 343 342 341
349 349 349 348 349 349 349 351 353 355 350 343 342 349 354 355 356 354 355 356 357 357 359 360 360 359 359 358 356 354 350 348 345 341 338 340 339 335 333 334 336 340 342
348 347 348 348 349 350 350 352 353 351 343 341 337 338 346 352 352 354 354 354 357 358 358 358 360 360 359 359 357 356 352 350 347 344 338 336 335 339 337 333 332 334 339
351 347 350 349 349 350 351 353 354 348 345 345 342 341 347 351 353 353 355 355 357 358 357 358 360 360 361 359 358 357 355 352 350 347 343 337 336 335 331 333 331 334 339
352 351 351 352 351 352 354 354 354 350 348 349 348 349 350 351 353 355 356 356 358 360 360 360 359 359 360 360 359 358 357 354 351 349 346 342 339 335 334 334 334 334 337
354 353 354 357 357 356 356 355 354 354 353 352 354 352 356 358 358 357 357 357 359 359 361 360 360 359 359 359 360 358 358 355 353 349 345 343 341 337 333 331 332 331 336
357 357 357 356 356 357 357 357 358 357 356 356 355 355 357 357 357 360 361 362 361 362 362 362 361 361 360 358 358 358 359 355 350 346 343 342 336 334 327 325 327 331 333
362 361 360 358 357 358 360 361 363 362 362 363 364 365 366 367 367 367 367 367 366 366 365 364 364 363 362 360 357 356 357 349 344 339 340 342 342 336 326 323 320 321 326
362 357 352 351 350 348 355 360 362 364 365 365 365 365 365 365 365 365 365 366 366 366 366 366 365 364 365 363 359 355 347 342 335 338 336 342 342 334 326 330 326 327 328
357 353 350 345 346 352 354 353 353 355 355 356 358 361 360 358 358 358 360 361 361 363 366 365 365 365 366 364 358 355 350 347 337 340 335 340 339 340 327 329 329 329 328
352 351 345 344 347 350 350 350 351 350 349 348 349 350 350 348 347 350 353 357 359 357 362 363 364 365 364 363 359 353 348 345 343 342 334 334 339 339 330 327 330 330 329
353 350 343 343 348 351 351 351 349 349 348 346 348 348 345 346 349 352 353 353 354 356 358 358 359 359 361 361 358 356 348 346 345 343 340 339 335 336 335 325 329 330 329
353 352 349 345 348 353 353 351 352 351 351 349 347 345 346 345 345 351 352 353 354 354 353 355 354 349 358 356 356 354 350 346 345 345 344 341 336 336 336 326 326 329 329
352 353 354 352 352 356 356 353 356 362 357 354 348 345 347 349 350 352 352 350 347 347 348 346 347 346 347 354 352 352 351 349 344 346 346 347 341 339 331 330 322 328 328
350 351 355 357 358 361 361 359 361 359 352 347 347 347 348 349 349 347 342 341 340 341 342 343 344 345 346 350 351 348 349 348 347 342 342 342 340 337 329 327 323 326 328
353 353 356 356 355 355 357 352 348 347 346 347 347 346 344 343 343 344 342 342 342 344 346 345 345 345 345 347 350 350 348 345 348 344 337 335 333 328 324 324 324 325 326
348 351 353 353 350 351 348 348 349 350 350 347 343 343 343 342 341 342 342 343 346 346 346 347 346 347 347 347 344 345 348 347 346 335 333 330 328 327 326 325 324 324 325
Wind_Speed
20 21 20 19 17 17 17 18 17 16 14 13 11 10 8 6 5 3 3 4 5 4 3 2 2 3 3 1 1 3 5 8 12 13 15 13 14 15 13 11 9 6 7
18 21 21 20 21 20 20 20 20 19 17 14 12 9 7 6 4 3 4 4 6 3 4 4 3 4 3 3 2 5 7 8 6 11 11 6 10 12 12 11 10 9 9
19 19 22 22 21 22 23 24 23 21 19 17 12 9 7 7 7 7 6 6 6 6 4 4 5 5 5 3 3 8 7 8 6 4 6 4 4 11 8 8 10 9 10
19 18 23 24 22 23 21 21 21 21 19 18 15 13 10 10 9 8 6 6 7 7 6 5 6 4 4 3 3 8 7 4 8 7 2 2 9 3 4 5 8 9 9
20 19 20 23 23 21 20 20 20 20 19 19 19 15 14 10 9 9 6 6 6 7 6 6 5 4 5 5 4 5 8 8 7 8 7 4 7 4 3 7 9 7 8
21 20 22 19 19 18 17 17 19 19 19 19 19 18 14 12 9 9 10 9 7 8 8 8 7 6 6 6 5 5 6 7 7 8 7 9 9 9 6 8 12 11 10
19 18 18 20 19 19 18 18 18 20 20 20 19 19 17 14 13 11 12 11 8 8 8 10 8 7 7 7 6 5 5 4 6 7 9 10 10 7 9 7 10 9 11
18 19 20 23 22 21 21 21 20 19 20 21 20 18 17 15 15 13 12 12 11 8 4 9 9 8 8 7 7 5 4 4 5 6 8 9 9 8 8 10 11 6 10
19 21 21 24 23 22 21 22 21 18 16 14 14 15 16 18 17 15 13 13 12 10 7 8 9 9 9 9 8 6 5 4 4 4 6 8 7 8 9 11 10 12 7
16 16 15 20 22 22 21 18 17 14 13 10 11 17 19 19 19 17 17 15 13 11 9 10 10 10 11 11 10 8 8 7 6 5 6 6 6 6 7 9 11 13 12
12 14 15 16 17 18 21 18 17 18 19 7 18 22 19 19 18 18 18 17 16 14 13 12 12 12 13 13 13 12 10 10 8 7 8 8 7 8 8 9 11 12 12
7 11 14 15 15 16 18 19 23 26 29 32 30 24 20 21 18 18 18 18 18 17 17 16 15 15 15 15 15 14 11 10 9 8 8 9 9 9 9 9 10 11 11
8 11 14 13 15 16 18 21 25 29 31 23 13 18 17 16 17 20 17 17 19 19 18 18 19 19 18 18 18 17 16 15 13 11 10 9 11 12 11 9 9 11 11
11 14 14 14 16 17 18 19 21 22 24 14 10 9 9 15 15 15 16 17 17 19 19 21 21 21 21 21 20 19 18 16 15 16 16 15 14 15 14 12 11 10 12
15 15 15 13 16 16 15 15 14 15 15 14 11 8 7 6 8 11 16 16 16 18 19 21 22 23 24 24 23 23 21 20 20 20 20 17 18 18 17 15 13 13 15
13 15 14 15 17 18 18 15 13 12 10 9 10 10 13 13 13 14 14 14 15 17 18 21 22 23 25 26 29 25 23 21 17 15 20 18 16 17 21 20 14 15 16
16 16 16 18 20 19 19 18 15 12 9 5 3 3 4 6 7 7 9 12 14 15 17 19 20 23 24 27 30 32 23 6 9 15 18 23 24 16 18 20 17 18 19
18 16 19 22 21 22 22 21 18 15 12 9 6 4 2 1 2 4 6 8 10 13 15 17 19 21 23 26 28 29 22 6 10 34 29 24 26 24 22 17 16 16 16
16 19 20 20 21 22 23 22 18 17 14 11 7 4 2 1 2 4 5 7 9 10 11 13 15 18 21 24 26 34 36 39 29 31 30 24 26 28 23 21 19 16 17
19 19 21 21 20 21 22 20 17 16 14 11 8 6 3 2 3 5 6 6 8 10 10 12 12 15 17 19 18 24 35 28 25 30 35 33 28 28 30 26 22 22 23
20 19 19 18 17 17 17 17 16 14 14 13 10 6 2 1 2 4 6 8 10 11 11 11 12 14 15 15 17 18 35 28 25 29 31 34 36 30 31 30 25 24 22
20 20 18 16 14 12 11 11 11 12 12 9 7 4 1 1 4 6 7 9 10 12 13 13 13 14 14 15 16 16 35 33 27 30 31 31 37 33 33 32 31 26 24
18 19 18 15 13 12 9 9 8 8 9 6 3 3 2 4 5 7 10 13 13 14 15 14 13 14 12 13 16 15 19 36 35 27 25 23 26 33 38 38 37 29 25
14 16 16 14 11 10 10 7 6 6 5 3 3 5 6 6 8 11 14 16 18 17 18 16 15 15 13 11 12 14 16 21 30 34 28 25 26 27 36 38 35 34 28
9 10 11 10 8 7 7 6 6 4 2 3 5 8 11 10 13 14 16 18 18 16 17 17 17 17 16 12 10 11 12 14 20 24 23 22 24 26 29 31 36 34 29
7 7 6 7 7 7 7 6 4 2 2 6 8 10 13 15 16 17 18 14 15 15 15 17 18 19 19 21 21 19 18 18 15 21 20 19 22 22 26 30 31 33 33
Wind_Direction
196 194 199 197 198 198 197 200 200 199 197 205 208 212 220 214 228 239 229 222 216 207 207 241 243 221 235 159 144 136 139 108 119 105 95 95 103 100 105 106 101 115 142
196 195 195 199 203 204 206 205 206 203 202 209 214 223 221 219 245 237 220 222 207 206 218 224 232 226 226 189 186 185 155 144 154 132 134 110 79 98 97 97 97 100 106
197 191 196 201 202 205 207 208 208 204 205 207 210 218 226 233 238 234 242 237 222 216 235 228 235 231 231 206 196 188 190 172 188 189 259 164 120 124 95 105 102 108 109
203 203 198 201 204 209 209 213 210 206 206 204 209 214 224 232 232 241 249 242 235 226 223 223 214 204 201 213 203 200 206 232 180 197 208 360 135 172 141 125 122 121 124
204 205 206 199 204 206 208 211 212 209 204 205 206 212 222 229 235 238 251 246 224 218 221 223 221 207 203 211 208 202 214 216 251 214 192 192 188 238 172 148 161 159 148
202 202 205 203 206 206 208 208 205 207 205 202 206 207 216 227 235 235 245 247 230 225 224 217 217 211 207 211 205 210 223 236 240 250 237 227 209 195 211 149 177 178 177
201 204 204 198 201 203 204 204 201 199 198 203 203 206 211 219 232 237 242 251 241 237 228 221 219 220 208 211 210 226 237 241 250 252 245 240 250 262 226 199 177 184 169
197 200 203 202 199 199 198 197 198 198 198 198 206 206 209 219 231 237 243 236 245 249 239 220 216 214 208 209 215 230 232 240 247 248 251 255 246 235 233 243 169 186 180
195 194 197 201 195 195 197 196 192 194 199 203 208 218 221 222 223 231 235 238 243 250 238 219 212 210 207 208 214 220 228 228 242 257 250 241 244 243 242 239 221 221 194
196 196 195 197 192 192 192 189 187 176 179 191 216 215 215 226 229 227 233 235 236 240 234 227 220 218 212 209 209 219 217 211 220 231 227 230 241 239 241 244 241 242 260
189 196 186 188 185 184 179 174 161 158 141 122 271 214 220 216 225 230 234 238 238 235 231 227 228 225 221 214 214 217 214 212 216 217 226 228 231 241 246 246 247 243 240
182 183 168 161 166 173 164 160 160 168 182 206 211 222 218 223 219 228 228 234 236 235 237 230 226 226 226 222 219 220 222 220 221 227 228 233 232 239 245 243 246 238 225
141 163 136 149 151 161 158 168 172 188 194 203 197 214 220 219 227 233 233 235 234 234 234 231 227 226 224 223 222 218 215 214 212 215 225 234 234 232 237 231 235 225 222
134 134 142 144 149 155 164 174 183 198 213 217 201 188 214 221 225 234 240 241 241 238 237 233 233 232 230 227 222 220 216 214 213 211 209 213 223 236 225 217 216 226 216
131 137 136 137 144 151 155 169 181 203 226 243 236 227 222 232 240 249 255 251 248 244 244 243 236 235 232 231 225 220 214 211 215 225 226 219 211 215 228 218 214 210 220
130 123 133 141 145 147 146 152 167 184 199 228 255 250 249 259 254 254 255 257 255 253 251 246 242 238 236 235 229 219 215 214 216 231 245 222 229 226 233 223 216 219 214
122 124 129 132 131 132 134 137 142 148 155 169 207 232 246 255 258 263 263 261 257 255 252 248 246 244 243 243 232 221 202 143 303 294 263 243 236 236 232 224 221 228 217
124 126 127 126 134 134 129 128 129 131 130 127 129 123 117 29 323 310 297 290 280 263 258 253 250 249 248 248 253 209 163 231 233 258 251 238 233 223 220 208 203 206 210
134 136 135 137 137 138 132 129 129 129 129 123 124 121 101 20 337 316 303 298 291 284 273 267 264 256 256 256 255 215 202 210 234 226 226 230 225 224 217 204 201 204 206
143 146 144 147 143 140 136 133 137 140 134 129 125 119 101 25 350 326 310 297 284 279 276 277 271 264 263 262 268 223 202 213 215 219 221 231 230 216 216 205 204 205 203
152 152 154 155 160 150 147 156 156 162 151 145 145 141 125 12 344 325 316 306 295 290 283 279 276 274 264 261 255 239 215 213 211 210 221 233 231 215 216 211 204 210 208
160 167 170 171 173 173 177 178 182 171 165 161 157 151 144 300 307 303 302 298 293 287 281 283 284 278 268 264 254 243 223 215 210 217 223 229 233 223 217 211 205 207 204
172 179 175 179 188 191 202 208 203 194 174 172 188 224 231 262 275 289 295 297 288 279 282 283 285 286 271 271 269 258 239 232 222 225 226 227 226 227 217 212 208 202 200
183 189 186 182 180 190 190 197 187 198 169 184 254 286 291 287 297 298 299 298 298 294 291 286 283 286 285 271 265 255 249 241 244 234 238 233 229 228 211 208 206 204 200
154 170 181 175 176 175 159 158 158 160 203 259 283 286 288 300 301 292 301 301 299 299 289 291 294 292 287 293 285 250 247 246 245 237 227 220 211 209 203 205 205 205 207
124 127 137 142 130 131 131 119 108 87 309 292 293 311 307 309 306 307 306 302 294 297 292 280 275 277 273 272 278 270 267 261 259 215 204 206 204 204 200 202 204 205 209